Weather History for KI75 - March, 2013

Change the Weather History Date:

Saturday, March 2, 2013

  Actual Average (KLWD) Record (KLWD)
Temperature  
Mean Temperature 24 °F 34 °F  
Max Temperature 28 °F 44 °F 77 °F (1992)
Min Temperature 19 °F 24 °F -6 °F (2014)
Degree Days  
Heating Degree Days 42 31  
Month to date heating degree days 63  
Since 1 July heating degree days 4780  
Cooling Degree Days 0 0  
Month to date cooling degree days 0  
Year to date cooling degree days 0  
Moisture  
Dew Point 16 °F    
Average Humidity 74    
Maximum Humidity 82    
Minimum Humidity 62    
Precipitation  
Precipitation 0.00 in 0.06 in 1.17 in (1965)
Month to date precipitation 0.12  
Sea Level Pressure  
Sea Level Pressure 30.25 in    
Wind  
Wind Speed 7 mph (WNW)    
Max Wind Speed 13 mph    
Max Gust Speed -    
Visibility 10 miles    
Events      
T = Trace of Precipitation, MM = Missing Value Source: NWS Daily Summary

Daily Weather History Graph

Daily Weather History Graph

Search for Another Location

Airport or City:

Trip Planner

Search our weather history database for the weather conditions in past years. The results will help you decide how hot, cold, wet, or windy it might be!

Date:

Astronomy

Mar. 02, 2013 Rise Set
Actual Time 6:46 AM CST 6:07 PM CST
Civil Twilight 6:19 AM CST 6:34 PM CST
Nautical Twilight 5:47 AM CST 7:06 PM CST
Astronomical Twilight 5:15 AM CST 7:38 PM CST
Moon 11:50 PM CST (3/2) 9:12 AM CST (3/2)
Length of Visible Light 12h 15m
Length of Day
11h 20m
Waning Gibbous, 74% of the Moon is Illuminated
Mar 2
Waning Gibbous
Mar 4
Last Quarter
Mar 11
New
Mar 19
First Quarter
Mar 27
Full

Hourly Weather History & Observations

Time (CST) Temp. Windchill Dew Point Humidity Pressure Visibility Wind Dir Wind Speed Gust Speed Precip Events Conditions
12:15 AM 22.8 °F 14.5 °F 15.6 °F 74% 30.30 in 10.0 mi North 6.9 mph - N/A   Overcast
12:35 AM 22.6 °F 14.3 °F 15.8 °F 75% 30.29 in 10.0 mi NNW 6.9 mph - N/A   Overcast
1:15 AM 22.8 °F 14.5 °F 15.6 °F 74% 30.29 in 10.0 mi North 6.9 mph - N/A   Overcast
1:35 AM 22.8 °F 13.6 °F 15.8 °F 74% 30.30 in 10.0 mi NNW 8.1 mph - N/A   Overcast
1:55 AM 22.8 °F 14.5 °F 15.8 °F 74% 30.29 in 10.0 mi North 6.9 mph - N/A   Overcast
2:15 AM 23.0 °F 14.7 °F 15.6 °F 73% 30.29 in 10.0 mi NNW 6.9 mph - N/A   Overcast
2:35 AM 22.8 °F 16.7 °F 15.8 °F 74% 30.28 in 10.0 mi North 4.6 mph - N/A   Overcast
2:55 AM 22.6 °F 15.3 °F 16.2 °F 76% 30.28 in 10.0 mi NNW 5.8 mph - N/A   Overcast
3:15 AM 22.6 °F 15.3 °F 16.0 °F 76% 30.28 in 10.0 mi NNW 5.8 mph - N/A   Overcast
3:35 AM 22.8 °F 13.6 °F 16.0 °F 75% 30.27 in 10.0 mi NNW 8.1 mph - N/A   Overcast
3:55 AM 23.0 °F 12.4 °F 15.8 °F 74% 30.28 in 10.0 mi NW 10.4 mph - N/A   Overcast
4:15 AM 22.8 °F 13.6 °F 15.8 °F 74% 30.28 in 10.0 mi NNW 8.1 mph - N/A   Overcast
4:35 AM 22.6 °F 12.6 °F 15.1 °F 73% 30.28 in 10.0 mi NNW 9.2 mph - N/A   Overcast
4:55 AM 22.5 °F 14.1 °F 15.1 °F 73% 30.28 in 10.0 mi NNW 6.9 mph - N/A   Overcast
5:15 AM 22.1 °F 11.3 °F 16.3 °F 79% 30.29 in 10.0 mi NNW 10.4 mph - N/A   Overcast
5:55 AM 21.2 °F 11.7 °F 16.5 °F 82% 30.29 in 10.0 mi NW 8.1 mph - N/A   Overcast
6:15 AM 21.0 °F 10.6 °F 15.8 °F 80% 30.30 in 10.0 mi NW 9.2 mph - N/A   Overcast
6:35 AM 20.7 °F 10.2 °F 15.4 °F 80% 30.30 in 10.0 mi NW 9.2 mph - N/A   Overcast
6:55 AM 20.3 °F 10.6 °F 15.4 °F 81% 30.30 in 10.0 mi NW 8.1 mph - N/A   Overcast
7:15 AM 20.3 °F 12.5 °F 15.4 °F 81% 30.30 in 10.0 mi NW 5.8 mph - N/A   Overcast
7:35 AM 20.3 °F 10.6 °F 15.4 °F 81% 30.30 in 10.0 mi WNW 8.1 mph - N/A   Overcast
7:55 AM 20.3 °F 10.6 °F 15.4 °F 81% 30.30 in 10.0 mi WNW 8.1 mph - N/A   Overcast
8:15 AM 20.7 °F 10.2 °F 15.3 °F 80% 30.30 in 10.0 mi WNW 9.2 mph - N/A   Overcast
8:35 AM 21.0 °F 11.4 °F 15.1 °F 78% 30.30 in 10.0 mi WNW 8.1 mph - N/A   Mostly Cloudy
8:55 AM 21.7 °F 11.5 °F 15.3 °F 76% 30.31 in 10.0 mi NW 9.2 mph - N/A   Scattered Clouds
9:15 AM 22.1 °F 10.0 °F 15.1 °F 74% 30.31 in 10.0 mi NW 12.7 mph - N/A   Scattered Clouds
9:35 AM 21.9 °F 10.4 °F 14.9 °F 74% 30.31 in 10.0 mi NW 11.5 mph - N/A   Mostly Cloudy
9:55 AM 22.5 °F 12.4 °F 15.3 °F 74% 30.31 in 10.0 mi NW 9.2 mph - N/A   Mostly Cloudy
10:15 AM 23.2 °F 14.1 °F 15.6 °F 73% 30.30 in 10.0 mi WNW 8.1 mph - N/A   Mostly Cloudy
10:35 AM 23.7 °F 14.0 °F 15.8 °F 72% 30.30 in 10.0 mi NW 9.2 mph - N/A   Scattered Clouds
10:55 AM 24.3 °F 15.4 °F 16.3 °F 72% 30.30 in 10.0 mi West 8.1 mph - N/A   Scattered Clouds
11:15 AM 24.8 °F 16.1 °F 16.2 °F 70% 30.30 in 10.0 mi WNW 8.1 mph - N/A   Scattered Clouds
11:35 AM 25.2 °F 17.3 °F 16.2 °F 69% 30.30 in 10.0 mi NW 6.9 mph - N/A   Scattered Clouds
11:55 AM 25.7 °F 16.4 °F 16.9 °F 69% 30.29 in 10.0 mi WNW 9.2 mph - N/A   Scattered Clouds
12:15 PM 26.1 °F 17.6 °F 16.7 °F 68% 30.28 in 10.0 mi NW 8.1 mph - N/A   Scattered Clouds
12:35 PM 26.4 °F 19.8 °F 16.5 °F 66% 30.27 in 10.0 mi WNW 5.8 mph - N/A   Clear
12:55 PM 26.8 °F 21.4 °F 16.5 °F 65% 30.26 in 10.0 mi WNW 4.6 mph - N/A   Clear
1:15 PM 27.0 °F 18.0 °F 16.9 °F 66% 30.26 in 10.0 mi WNW 9.2 mph - N/A   Clear
1:35 PM 27.5 °F 23.6 °F 16.7 °F 64% 30.25 in 10.0 mi NW 3.5 mph - N/A   Clear
1:55 PM 27.5 °F 23.6 °F 16.3 °F 63% 30.24 in 10.0 mi NW 3.5 mph - N/A   Scattered Clouds
2:15 PM 27.9 °F 20.6 °F 17.1 °F 64% 30.24 in 10.0 mi West 6.9 mph - N/A   Clear
2:35 PM 27.9 °F 20.6 °F 16.5 °F 62% 30.24 in 10.0 mi WNW 6.9 mph - N/A   Clear
2:55 PM 28.0 °F 24.2 °F 16.7 °F 62% 30.23 in 10.0 mi WNW 3.5 mph - N/A   Clear
3:15 PM 28.4 °F - 18.0 °F 65% 30.23 in 10.0 mi Calm Calm - N/A   Clear
3:35 PM 27.7 °F 23.8 °F 17.8 °F 66% 30.23 in 10.0 mi SW 3.5 mph - N/A   Clear
3:55 PM 27.5 °F 22.2 °F 17.4 °F 66% 30.23 in 10.0 mi SW 4.6 mph - N/A   Clear
4:15 PM 27.3 °F 22.0 °F 17.6 °F 67% 30.23 in 10.0 mi WSW 4.6 mph - N/A   Clear
4:35 PM 27.1 °F 20.7 °F 18.0 °F 68% 30.22 in 10.0 mi SW 5.8 mph - N/A   Clear
4:55 PM 26.4 °F 19.8 °F 17.6 °F 69% 30.22 in 10.0 mi SW 5.8 mph - N/A   Clear
5:15 PM 25.7 °F 20.1 °F 17.2 °F 70% 30.22 in 10.0 mi SW 4.6 mph - N/A   Clear
5:35 PM 24.8 °F 17.9 °F 16.7 °F 71% 30.22 in 10.0 mi WSW 5.8 mph - N/A   Clear
5:55 PM 23.5 °F 17.6 °F 16.2 °F 73% 30.21 in 10.0 mi SW 4.6 mph - N/A   Clear
6:15 PM 22.6 °F 18.0 °F 15.8 °F 75% 30.21 in 10.0 mi SW 3.5 mph - N/A   Unknown
6:35 PM 22.8 °F - 16.2 °F 76% 30.21 in 10.0 mi Calm Calm - N/A   Clear
6:55 PM 22.3 °F - 16.3 °F 78% 30.21 in 10.0 mi Calm Calm - N/A   Clear
7:15 PM 22.6 °F - 16.2 °F 76% 30.20 in - Calm Calm - N/A   Unknown
7:35 PM 20.1 °F 12.3 °F 14.7 °F 80% 30.20 in 10.0 mi SSW 5.8 mph - N/A   Clear
7:55 PM 19.6 °F 11.7 °F 14.5 °F 81% 30.20 in 10.0 mi SSW 5.8 mph - N/A   Clear
8:15 PM 20.1 °F 12.3 °F 14.9 °F 80% 30.20 in 10.0 mi SW 5.8 mph - N/A   Mostly Cloudy
8:35 PM 21.0 °F 14.6 °F 15.8 °F 80% 30.20 in 10.0 mi SSW 4.6 mph - N/A   Overcast
8:55 PM 21.9 °F 17.2 °F 16.7 °F 80% 30.20 in 10.0 mi SSW 3.5 mph - N/A   Overcast
9:15 PM 22.1 °F 17.4 °F 17.1 °F 81% 30.19 in 10.0 mi South 3.5 mph - N/A   Overcast
9:35 PM 22.8 °F 18.2 °F 16.9 °F 78% 30.19 in 10.0 mi SSW 3.5 mph - N/A   Overcast
9:55 PM 22.8 °F - 17.2 °F 79% 30.18 in 10.0 mi Calm Calm - N/A   Overcast
10:15 PM 23.4 °F - 17.6 °F 79% 30.18 in 10.0 mi Calm Calm - N/A   Overcast
10:35 PM 23.4 °F 18.9 °F 18.1 °F 80% 30.18 in 10.0 mi SSE 3.5 mph - N/A   Overcast
10:55 PM 23.0 °F 18.4 °F 17.6 °F 80% 30.17 in 10.0 mi SSE 3.5 mph - N/A   Overcast
11:15 PM 23.0 °F 18.4 °F 17.6 °F 80% 30.17 in 10.0 mi SSE 3.5 mph - N/A   Overcast
11:35 PM 22.8 °F 18.2 °F 18.0 °F 82% 30.16 in 10.0 mi South 3.5 mph - N/A   Overcast
11:55 PM 22.5 °F 16.3 °F 17.2 °F 80% 30.16 in 10.0 mi SSE 4.6 mph - N/A   Overcast